Wetterdaten: Freitag, 17.12.2010
Datum Zeit Temp. A. Feuchte A. Luftdruck Regen Wind Richtung Richtung Sonnenschein UV Solar Windben
17.12.2010 00:00 -1,6 C 91 % 993,7 hPa 0,0 mm 0,0 km/h (0 Bft) W-NW 286 0 min 0 UV-I 0 W/m 1,6 km/h (1 Bft)
17.12.2010 00:10 -1,6 C 91 % 993,5 hPa 0,0 mm 0,0 km/h (0 Bft) N 0 0 min 0 UV-I 0 W/m 0,0 km/h (0 Bft)
17.12.2010 00:20 -1,6 C 91 % 993,5 hPa 0,0 mm 0,0 km/h (0 Bft) N 0 0 min 0 UV-I 0 W/m 0,0 km/h (0 Bft)
17.12.2010 00:30 -1,7 C 91 % 993,5 hPa 0,3 mm 0,0 km/h (0 Bft) W-NW 292 0 min 0 UV-I 0 W/m 1,6 km/h (1 Bft)
17.12.2010 00:40 -1,7 C 91 % 993,7 hPa 0,0 mm 0,0 km/h (0 Bft) W-NW 292 0 min 0 UV-I 0 W/m 1,6 km/h (1 Bft)
17.12.2010 00:50 -1,8 C 91 % 993,8 hPa 0,0 mm 0,0 km/h (0 Bft) W-NW 292 0 min 0 UV-I 0 W/m 3,2 km/h (1 Bft)
17.12.2010 01:00 -1,8 C 91 % 993,8 hPa 0,0 mm 0,0 km/h (0 Bft) W-NW 292 0 min 0 UV-I 0 W/m 6,4 km/h (2 Bft)
17.12.2010 01:10 -1,8 C 91 % 993,6 hPa 0,3 mm 0,0 km/h (0 Bft) W-NW 292 0 min 0 UV-I 0 W/m 3,2 km/h (1 Bft)
17.12.2010 01:20 -1,8 C 91 % 993,5 hPa 0,0 mm 0,0 km/h (0 Bft) N 0 0 min 0 UV-I 0 W/m 0,0 km/h (0 Bft)
17.12.2010 01:30 -1,7 C 91 % 993,6 hPa 0,0 mm 0,0 km/h (0 Bft) W-NW 292 0 min 0 UV-I 0 W/m 4,8 km/h (1 Bft)
17.12.2010 01:40 -1,7 C 91 % 993,5 hPa 0,0 mm 0,0 km/h (0 Bft) W-NW 292 0 min 0 UV-I 0 W/m 1,6 km/h (1 Bft)
17.12.2010 01:50 -1,7 C 91 % 993,5 hPa 0,0 mm 0,0 km/h (0 Bft) W-NW 292 0 min 0 UV-I 0 W/m 1,6 km/h (1 Bft)
17.12.2010 02:00 -1,7 C 91 % 993,3 hPa 0,0 mm 0,0 km/h (0 Bft) W-NW 292 0 min 0 UV-I 0 W/m 1,6 km/h (1 Bft)
17.12.2010 02:10 -1,7 C 91 % 993,2 hPa 0,0 mm 0,0 km/h (0 Bft) W-NW 292 0 min 0 UV-I 0 W/m 3,2 km/h (1 Bft)
17.12.2010 02:20 -1,7 C 91 % 993,2 hPa 0,0 mm 0,0 km/h (0 Bft) W-NW 292 0 min 0 UV-I 0 W/m 3,2 km/h (1 Bft)
17.12.2010 02:30 -1,7 C 91 % 993,2 hPa 0,0 mm 0,0 km/h (0 Bft) W-NW 292 0 min 0 UV-I 0 W/m 4,8 km/h (1 Bft)
17.12.2010 02:40 -1,7 C 91 % 993,3 hPa 0,3 mm 0,0 km/h (0 Bft) W-NW 292 0 min 0 UV-I 0 W/m 4,8 km/h (1 Bft)
17.12.2010 02:50 -1,7 C 91 % 993,2 hPa 0,0 mm 0,0 km/h (0 Bft) W-NW 292 0 min 0 UV-I 0 W/m 6,4 km/h (2 Bft)
17.12.2010 03:00 -1,7 C 91 % 993,3 hPa 0,0 mm 0,0 km/h (0 Bft) W-NW 292 0 min 0 UV-I 0 W/m 6,4 km/h (2 Bft)
17.12.2010 03:10 -1,7 C 91 % 993,4 hPa 0,0 mm 1,6 km/h (1 Bft) W 270 0 min 0 UV-I 0 W/m 6,4 km/h (2 Bft)
17.12.2010 03:20 -1,8 C 91 % 993,4 hPa 0,0 mm 1,6 km/h (1 Bft) W 270 0 min 0 UV-I 0 W/m 8,0 km/h (2 Bft)
17.12.2010 03:30 -1,9 C 91 % 993,4 hPa 0,0 mm 1,6 km/h (1 Bft) NW 315 0 min 0 UV-I 0 W/m 8,0 km/h (2 Bft)
17.12.2010 03:40 -1,9 C 91 % 993,4 hPa 0,0 mm 0,0 km/h (0 Bft) N 360 0 min 0 UV-I 0 W/m 4,8 km/h (1 Bft)
17.12.2010 03:50 -2,1 C 91 % 993,3 hPa 0,0 mm 0,0 km/h (0 Bft) N-NO 22 0 min 0 UV-I 0 W/m 3,2 km/h (1 Bft)
17.12.2010 04:00 -2,1 C 91 % 993,3 hPa 0,0 mm 0,0 km/h (0 Bft) NW 315 0 min 0 UV-I 0 W/m 3,2 km/h (1 Bft)
17.12.2010 04:10 -2,1 C 91 % 993,3 hPa 0,0 mm 0,0 km/h (0 Bft) NW 315 0 min 0 UV-I 0 W/m 4,8 km/h (1 Bft)
17.12.2010 04:20 -2,2 C 91 % 993,3 hPa 0,0 mm 0,0 km/h (0 Bft) N-NW 337 0 min 0 UV-I 0 W/m 3,2 km/h (1 Bft)
17.12.2010 04:30 -2,2 C 91 % 993,3 hPa 0,0 mm 0,0 km/h (0 Bft) N-NW 337 0 min 0 UV-I 0 W/m 1,6 km/h (1 Bft)
17.12.2010 04:40 -2,2 C 91 % 993,3 hPa 0,0 mm 0,0 km/h (0 Bft) N-NW 337 0 min 0 UV-I 0 W/m 1,6 km/h (1 Bft)
17.12.2010 04:50 -2,2 C 91 % 993,3 hPa 0,0 mm 0,0 km/h (0 Bft) N-NW 337 0 min 0 UV-I 0 W/m 1,6 km/h (1 Bft)
17.12.2010 05:00 -2,3 C 91 % 993,2 hPa 0,3 mm 0,0 km/h (0 Bft) N-NW 337 0 min 0 UV-I 0 W/m 1,6 km/h (1 Bft)
17.12.2010 05:10 -2,3 C 91 % 993,3 hPa 0,0 mm 0,0 km/h (0 Bft) NW 315 0 min 0 UV-I 0 W/m 4,8 km/h (1 Bft)
17.12.2010 05:20 -2,3 C 91 % 993,2 hPa 0,0 mm 0,0 km/h (0 Bft) W 270 0 min 0 UV-I 0 W/m 4,8 km/h (1 Bft)
17.12.2010 05:30 -2,3 C 91 % 993,2 hPa 0,0 mm 1,6 km/h (1 Bft) W 270 0 min 0 UV-I 0 W/m 4,8 km/h (1 Bft)
17.12.2010 05:40 -2,4 C 91 % 993,2 hPa 0,0 mm 1,6 km/h (1 Bft) W 270 0 min 0 UV-I 0 W/m 8,0 km/h (2 Bft)
17.12.2010 05:50 -2,5 C 91 % 993,1 hPa 0,0 mm 1,6 km/h (1 Bft) W 270 0 min 0 UV-I 0 W/m 9,7 km/h (2 Bft)
17.12.2010 06:00 -2,6 C 91 % 993,1 hPa 0,0 mm 0,0 km/h (0 Bft) W 270 0 min 0 UV-I 0 W/m 3,2 km/h (1 Bft)
17.12.2010 06:10 -2,6 C 91 % 993,1 hPa 0,0 mm 0,0 km/h (0 Bft) W 270 0 min 0 UV-I 0 W/m 3,2 km/h (1 Bft)
17.12.2010 06:20 -2,6 C 91 % 993,1 hPa 0,0 mm 0,0 km/h (0 Bft) W 270 0 min 0 UV-I 0 W/m 4,8 km/h (1 Bft)
17.12.2010 06:30 -2,6 C 91 % 993,2 hPa 0,0 mm 0,0 km/h (0 Bft) W 270 0 min 0 UV-I 0 W/m 4,8 km/h (1 Bft)
17.12.2010 06:40 -2,7 C 91 % 993,2 hPa 0,0 mm 0,0 km/h (0 Bft) W 270 0 min 0 UV-I 0 W/m 3,2 km/h (1 Bft)
17.12.2010 06:50 -2,7 C 91 % 993,3 hPa 0,0 mm 0,0 km/h (0 Bft) W 270 0 min 0 UV-I 0 W/m 3,2 km/h (1 Bft)
17.12.2010 07:00 -2,7 C 91 % 993,2 hPa 0,0 mm 0,0 km/h (0 Bft) W-NW 292 0 min 0 UV-I 0 W/m 4,8 km/h (1 Bft)
17.12.2010 07:10 -2,7 C 91 % 993,2 hPa 0,0 mm 0,0 km/h (0 Bft) W-NW 292 0 min 0 UV-I 0 W/m 4,8 km/h (1 Bft)
17.12.2010 07:20 -2,7 C 91 % 993,3 hPa 0,0 mm 0,0 km/h (0 Bft) W 270 0 min 0 UV-I 0 W/m 4,8 km/h (1 Bft)
17.12.2010 07:30 -2,7 C 91 % 993,2 hPa 0,0 mm 0,0 km/h (0 Bft) W 270 0 min 0 UV-I 0 W/m 3,2 km/h (1 Bft)
17.12.2010 07:40 -2,8 C 91 % 993,3 hPa 0,0 mm 0,0 km/h (0 Bft) W 270 0 min 0 UV-I 0 W/m 6,4 km/h (2 Bft)
17.12.2010 07:50 -2,8 C 91 % 993,3 hPa 0,0 mm 1,6 km/h (1 Bft) W 270 0 min 0 UV-I 0 W/m 4,8 km/h (1 Bft)
17.12.2010 08:00 -2,8 C 91 % 993,4 hPa 0,0 mm 0,0 km/h (0 Bft) W 271 0 min 0 UV-I 0 W/m 0,0 km/h (0 Bft)
17.12.2010 08:10 -2,8 C 91 % 993,4 hPa 0,0 mm 0,0 km/h (0 Bft) W 270 0 min 0 UV-I 0 W/m 3,2 km/h (1 Bft)
17.12.2010 08:20 -2,9 C 91 % 993,4 hPa 0,0 mm 0,0 km/h (0 Bft) W 270 0 min 0 UV-I 0 W/m 4,8 km/h (1 Bft)
17.12.2010 08:30 -2,9 C 91 % 993,5 hPa 0,0 mm 0,0 km/h (0 Bft) W 270 0 min 0 UV-I 0 W/m 3,2 km/h (1 Bft)
17.12.2010 08:40 -2,9 C 91 % 993,6 hPa 0,0 mm 0,0 km/h (0 Bft) W 270 0 min 0 UV-I 0 W/m 1,6 km/h (1 Bft)
17.12.2010 08:50 -2,9 C 91 % 993,8 hPa 0,0 mm 0,0 km/h (0 Bft) W 270 0 min 0 UV-I 0 W/m 1,6 km/h (1 Bft)
17.12.2010 09:00 -2,9 C 91 % 993,8 hPa 0,0 mm 0,0 km/h (0 Bft) W 270 0 min 0 UV-I 0 W/m 3,2 km/h (1 Bft)
17.12.2010 09:10 -2,9 C 91 % 993,6 hPa 0,0 mm 0,0 km/h (0 Bft) W 270 0 min 0 UV-I 0 W/m 3,2 km/h (1 Bft)
17.12.2010 09:20 -2,8 C 91 % 993,7 hPa 0,0 mm 0,0 km/h (0 Bft) W 270 0 min 0 UV-I 0 W/m 3,2 km/h (1 Bft)
17.12.2010 09:30 -2,8 C 91 % 993,8 hPa 0,0 mm 0,0 km/h (0 Bft) W 270 0 min 0 UV-I 0 W/m 3,2 km/h (1 Bft)
17.12.2010 09:40 -2,8 C 91 % 993,8 hPa 0,0 mm 0,0 km/h (0 Bft) W 270 0 min 0 UV-I 0 W/m 1,6 km/h (1 Bft)
17.12.2010 09:50 -2,8 C 91 % 993,8 hPa 0,0 mm 0,0 km/h (0 Bft) W 270 0 min 0 UV-I 0 W/m 1,6 km/h (1 Bft)
17.12.2010 10:00 -2,8 C 91 % 993,8 hPa 0,0 mm 0,0 km/h (0 Bft) W 270 0 min 0 UV-I 0 W/m 3,2 km/h (1 Bft)
17.12.2010 10:10 -2,7 C 91 % 994,0 hPa 0,0 mm 0,0 km/h (0 Bft) W 270 0 min 0 UV-I 0 W/m 4,8 km/h (1 Bft)
17.12.2010 10:20 -2,7 C 91 % 994,2 hPa 0,0 mm 1,6 km/h (1 Bft) W-SW 247 0 min 0 UV-I 5 W/m 8,0 km/h (2 Bft)
17.12.2010 10:30 -2,7 C 91 % 994,4 hPa 0,0 mm 3,2 km/h (1 Bft) W-SW 247 0 min 0 UV-I 5 W/m 8,0 km/h (2 Bft)
17.12.2010 10:40 -2,7 C 91 % 994,4 hPa 0,0 mm 3,2 km/h (1 Bft) W-SW 247 0 min 0 UV-I 7 W/m 9,7 km/h (2 Bft)
17.12.2010 10:50 -2,7 C 91 % 994,4 hPa 0,0 mm 1,6 km/h (1 Bft) W-SW 247 0 min 0 UV-I 9 W/m 8,0 km/h (2 Bft)
17.12.2010 11:00 -2,7 C 91 % 994,4 hPa 0,0 mm 1,6 km/h (1 Bft) W 270 0 min 0 UV-I 9 W/m 6,4 km/h (2 Bft)
17.12.2010 11:10 -2,7 C 91 % 994,4 hPa 0,0 mm 0,0 km/h (0 Bft) W 270 0 min 0 UV-I 9 W/m 3,2 km/h (1 Bft)
17.12.2010 11:20 -2,7 C 91 % 994,3 hPa 0,0 mm 1,6 km/h (1 Bft) W-SW 247 0 min 0 UV-I 11 W/m 6,4 km/h (2 Bft)
17.12.2010 11:30 -2,7 C 91 % 994,3 hPa 0,0 mm 1,6 km/h (1 Bft) W-SW 247 0 min 0 UV-I 9 W/m 4,8 km/h (1 Bft)
17.12.2010 11:40 -2,6 C 91 % 994,5 hPa 0,0 mm 0,0 km/h (0 Bft) W-SW 247 0 min 0 UV-I 12 W/m 3,2 km/h (1 Bft)
17.12.2010 11:50 -2,6 C 91 % 994,6 hPa 0,0 mm 0,0 km/h (0 Bft) W-SW 247 0 min 0 UV-I 12 W/m 3,2 km/h (1 Bft)
17.12.2010 12:00 -2,4 C 91 % 994,5 hPa 0,0 mm 0,0 km/h (0 Bft) W-SW 247 0 min 0 UV-I 12 W/m 4,8 km/h (1 Bft)
17.12.2010 12:10 -2,3 C 91 % 994,6 hPa 0,0 mm 1,6 km/h (1 Bft) W 270 0 min 0 UV-I 12 W/m 4,8 km/h (1 Bft)
17.12.2010 12:20 -2,3 C 91 % 994,5 hPa 0,0 mm 0,0 km/h (0 Bft) W 270 0 min 0 UV-I 18 W/m 3,2 km/h (1 Bft)
17.12.2010 12:30 -2,2 C 91 % 994,4 hPa 0,0 mm 0,0 km/h (0 Bft) N 0 0 min 0 UV-I 46 W/m 0,0 km/h (0 Bft)
17.12.2010 12:40 -2,0 C 91 % 994,5 hPa 0,0 mm 0,0 km/h (0 Bft) SW 225 0 min 0 UV-I 35 W/m 4,8 km/h (1 Bft)
17.12.2010 12:50 -1,8 C 91 % 994,4 hPa 0,0 mm 0,0 km/h (0 Bft) SW 225 0 min 0 UV-I 39 W/m 4,8 km/h (1 Bft)
17.12.2010 13:00 -1,7 C 91 % 994,3 hPa 0,3 mm 0,0 km/h (0 Bft) SW 225 0 min 0 UV-I 21 W/m 3,2 km/h (1 Bft)
17.12.2010 13:10 -1,6 C 91 % 994,2 hPa 0,0 mm 0,0 km/h (0 Bft) SW 225 0 min 0 UV-I 18 W/m 1,6 km/h (1 Bft)
17.12.2010 13:20 -1,6 C 91 % 994,2 hPa 0,0 mm 0,0 km/h (0 Bft) SW 225 0 min 0 UV-I 19 W/m 3,2 km/h (1 Bft)
17.12.2010 13:30 -1,6 C 90 % 994,2 hPa 0,0 mm 0,0 km/h (0 Bft) SW 225 0 min 0 UV-I 21 W/m 1,6 km/h (1 Bft)
17.12.2010 13:40 -1,6 C 90 % 994,3 hPa 0,0 mm 0,0 km/h (0 Bft) N 0 0 min 0 UV-I 19 W/m 0,0 km/h (0 Bft)
17.12.2010 13:50 -1,6 C 90 % 994,2 hPa 0,3 mm 0,0 km/h (0 Bft) N 0 0 min 0 UV-I 21 W/m 0,0 km/h (0 Bft)
17.12.2010 14:00 -1,6 C 90 % 994,2 hPa 0,0 mm 0,0 km/h (0 Bft) N 0 0 min 0 UV-I 25 W/m 0,0 km/h (0 Bft)
17.12.2010 14:10 -1,5 C 90 % 994,0 hPa 0,3 mm 0,0 km/h (0 Bft) SW 225 0 min 0 UV-I 16 W/m 1,6 km/h (1 Bft)
17.12.2010 14:20 -1,4 C 90 % 994,1 hPa 0,0 mm 0,0 km/h (0 Bft) N 0 0 min 0 UV-I 12 W/m 0,0 km/h (0 Bft)
17.12.2010 14:30 -1,4 C 90 % 994,1 hPa 0,0 mm 0,0 km/h (0 Bft) N 0 0 min 0 UV-I 12 W/m 0,0 km/h (0 Bft)
17.12.2010 14:40 -1,4 C 90 % 994,1 hPa 0,0 mm 0,0 km/h (0 Bft) SW 225 0 min 0 UV-I 11 W/m 3,2 km/h (1 Bft)
17.12.2010 14:50 -1,4 C 90 % 994,3 hPa 0,0 mm 0,0 km/h (0 Bft) SW 225 0 min 0 UV-I 9 W/m 4,8 km/h (1 Bft)
17.12.2010 15:00 -1,5 C 89 % 994,3 hPa 0,3 mm 0,0 km/h (0 Bft) SW 225 0 min 0 UV-I 7 W/m 4,8 km/h (1 Bft)
17.12.2010 15:10 -1,6 C 89 % 994,4 hPa 0,0 mm 0,0 km/h (0 Bft) SW 225 0 min 0 UV-I 7 W/m 4,8 km/h (1 Bft)
17.12.2010 15:20 -1,7 C 89 % 994,4 hPa 0,0 mm 0,0 km/h (0 Bft) SW 225 0 min 0 UV-I 5 W/m 1,6 km/h (1 Bft)
17.12.2010 15:30 -1,8 C 89 % 994,5 hPa 0,0 mm 0,0 km/h (0 Bft) SW 225 0 min 0 UV-I 0 W/m 1,6 km/h (1 Bft)
17.12.2010 15:40 -1,8 C 89 % 994,6 hPa 0,0 mm 0,0 km/h (0 Bft) N 0 0 min 0 UV-I 0 W/m 0,0 km/h (0 Bft)
17.12.2010 15:50 -1,9 C 89 % 994,6 hPa 0,0 mm 0,0 km/h (0 Bft) N 0 0 min 0 UV-I 0 W/m 0,0 km/h (0 Bft)
17.12.2010 16:00 -1,9 C 89 % 994,5 hPa 0,0 mm 0,0 km/h (0 Bft) SW 217 0 min 0 UV-I 0 W/m 0,0 km/h (0 Bft)
17.12.2010 16:10 -1,9 C 89 % 994,5 hPa 0,0 mm 0,0 km/h (0 Bft) SW 225 0 min 0 UV-I 0 W/m 1,6 km/h (1 Bft)
17.12.2010 16:20 -2,0 C 89 % 994,5 hPa 0,0 mm 0,0 km/h (0 Bft) SW 225 0 min 0 UV-I 0 W/m 1,6 km/h (1 Bft)
17.12.2010 16:30 -2,1 C 89 % 994,5 hPa 0,0 mm 0,0 km/h (0 Bft) SW 225 0 min 0 UV-I 0 W/m 1,6 km/h (1 Bft)
17.12.2010 16:40 -2,2 C 88 % 994,5 hPa 0,0 mm 0,0 km/h (0 Bft) SW 225 0 min 0 UV-I 0 W/m 1,6 km/h (1 Bft)
17.12.2010 16:50 -2,3 C 89 % 994,5 hPa 0,0 mm 0,0 km/h (0 Bft) SW 225 0 min 0 UV-I 0 W/m 1,6 km/h (1 Bft)
17.12.2010 17:00 -2,4 C 88 % 994,5 hPa 0,0 mm 0,0 km/h (0 Bft) N 0 0 min 0 UV-I 0 W/m 0,0 km/h (0 Bft)
17.12.2010 17:10 -2,6 C 88 % 994,6 hPa 0,0 mm 0,0 km/h (0 Bft) N 0 0 min 0 UV-I 0 W/m 0,0 km/h (0 Bft)
17.12.2010 17:20 -2,7 C 88 % 994,6 hPa 0,0 mm 0,0 km/h (0 Bft) SW 225 0 min 0 UV-I 0 W/m 1,6 km/h (1 Bft)
17.12.2010 17:30 -2,9 C 88 % 994,7 hPa 0,0 mm 0,0 km/h (0 Bft) N 0 0 min 0 UV-I 0 W/m 0,0 km/h (0 Bft)
17.12.2010 17:40 -2,9 C 89 % 994,6 hPa 0,0 mm 0,0 km/h (0 Bft) SW 225 0 min 0 UV-I 0 W/m 3,2 km/h (1 Bft)
17.12.2010 17:50 -3,0 C 89 % 994,7 hPa 0,0 mm 0,0 km/h (0 Bft) SW 225 0 min 0 UV-I 0 W/m 1,6 km/h (1 Bft)
17.12.2010 18:00 -3,0 C 89 % 994,7 hPa 0,0 mm 0,0 km/h (0 Bft) SW 225 0 min 0 UV-I 0 W/m 3,2 km/h (1 Bft)
17.12.2010 18:10 -3,0 C 89 % 994,9 hPa 0,0 mm 1,6 km/h (1 Bft) S-SW 202 0 min 0 UV-I 0 W/m 3,2 km/h (1 Bft)
17.12.2010 18:20 -2,9 C 89 % 994,9 hPa 0,0 mm 1,6 km/h (1 Bft) S-SW 202 0 min 0 UV-I 0 W/m 4,8 km/h (1 Bft)
17.12.2010 18:30 -2,9 C 89 % 994,9 hPa 0,0 mm 0,0 km/h (0 Bft) S 180 0 min 0 UV-I 0 W/m 3,2 km/h (1 Bft)
17.12.2010 18:40 -2,8 C 89 % 994,8 hPa 0,0 mm 0,0 km/h (0 Bft) S 180 0 min 0 UV-I 0 W/m 4,8 km/h (1 Bft)
17.12.2010 18:50 -2,8 C 89 % 995,0 hPa 0,0 mm 0,0 km/h (0 Bft) S 180 0 min 0 UV-I 0 W/m 3,2 km/h (1 Bft)
17.12.2010 19:00 -2,8 C 89 % 994,9 hPa 0,0 mm 0,0 km/h (0 Bft) S 180 0 min 0 UV-I 0 W/m 4,8 km/h (1 Bft)
17.12.2010 19:10 -2,8 C 89 % 995,0 hPa 0,0 mm 0,0 km/h (0 Bft) S 180 0 min 0 UV-I 0 W/m 4,8 km/h (1 Bft)
17.12.2010 19:20 -2,9 C 89 % 995,0 hPa 0,3 mm 0,0 km/h (0 Bft) S 180 0 min 0 UV-I 0 W/m 4,8 km/h (1 Bft)
17.12.2010 19:30 -2,9 C 89 % 994,9 hPa 0,0 mm 0,0 km/h (0 Bft) S 180 0 min 0 UV-I 0 W/m 4,8 km/h (1 Bft)
17.12.2010 19:40 -2,9 C 89 % 995,0 hPa 0,0 mm 0,0 km/h (0 Bft) S 180 0 min 0 UV-I 0 W/m 3,2 km/h (1 Bft)
17.12.2010 19:50 -2,9 C 89 % 995,1 hPa 0,0 mm 0,0 km/h (0 Bft) S 180 0 min 0 UV-I 0 W/m 3,2 km/h (1 Bft)
17.12.2010 20:00 -2,9 C 90 % 995,2 hPa 0,0 mm 0,0 km/h (0 Bft) S 180 0 min 0 UV-I 0 W/m 3,2 km/h (1 Bft)
17.12.2010 20:10 -2,9 C 90 % 995,2 hPa 0,0 mm 0,0 km/h (0 Bft) S 180 0 min 0 UV-I 0 W/m 4,8 km/h (1 Bft)
17.12.2010 20:20 -2,9 C 90 % 995,3 hPa 0,0 mm 0,0 km/h (0 Bft) S 180 0 min 0 UV-I 0 W/m 4,8 km/h (1 Bft)
17.12.2010 20:30 -2,9 C 90 % 995,3 hPa 0,0 mm 0,0 km/h (0 Bft) S 180 0 min 0 UV-I 0 W/m 1,6 km/h (1 Bft)
17.12.2010 20:40 -2,9 C 90 % 995,4 hPa 0,0 mm 0,0 km/h (0 Bft) S 180 0 min 0 UV-I 0 W/m 3,2 km/h (1 Bft)
17.12.2010 20:50 -2,9 C 90 % 995,4 hPa 0,0 mm 0,0 km/h (0 Bft) N 0 0 min 0 UV-I 0 W/m 0,0 km/h (0 Bft)
17.12.2010 21:00 -2,9 C 90 % 995,5 hPa 0,3 mm 0,0 km/h (0 Bft) S 180 0 min 0 UV-I 0 W/m 1,6 km/h (1 Bft)
17.12.2010 21:10 -2,9 C 90 % 995,5 hPa 0,0 mm 0,0 km/h (0 Bft) S 180 0 min 0 UV-I 0 W/m 4,8 km/h (1 Bft)
17.12.2010 21:20 -2,8 C 90 % 995,5 hPa 0,0 mm 0,0 km/h (0 Bft) S 180 0 min 0 UV-I 0 W/m 3,2 km/h (1 Bft)
17.12.2010 21:30 -2,7 C 90 % 995,6 hPa 0,0 mm 0,0 km/h (0 Bft) S 180 0 min 0 UV-I 0 W/m 3,2 km/h (1 Bft)
17.12.2010 21:40 -2,7 C 90 % 995,7 hPa 0,0 mm 0,0 km/h (0 Bft) S 180 0 min 0 UV-I 0 W/m 1,6 km/h (1 Bft)
17.12.2010 21:50 -2,6 C 90 % 995,8 hPa 0,0 mm 0,0 km/h (0 Bft) N 0 0 min 0 UV-I 0 W/m 0,0 km/h (0 Bft)
17.12.2010 22:00 -2,6 C 90 % 995,8 hPa 0,0 mm 0,0 km/h (0 Bft) N 0 0 min 0 UV-I 0 W/m 0,0 km/h (0 Bft)
17.12.2010 22:10 -2,6 C 90 % 995,9 hPa 0,0 mm 0,0 km/h (0 Bft) N 0 0 min 0 UV-I 0 W/m 0,0 km/h (0 Bft)
17.12.2010 22:20 -2,6 C 90 % 996,0 hPa 0,0 mm 0,0 km/h (0 Bft) N 0 0 min 0 UV-I 0 W/m 0,0 km/h (0 Bft)
17.12.2010 22:30 -2,7 C 90 % 996,0 hPa 0,0 mm 0,0 km/h (0 Bft) S 180 0 min 0 UV-I 0 W/m 3,2 km/h (1 Bft)
17.12.2010 22:40 -2,7 C 90 % 996,0 hPa 0,0 mm 0,0 km/h (0 Bft) S 180 0 min 0 UV-I 0 W/m 3,2 km/h (1 Bft)
17.12.2010 22:50 -2,8 C 90 % 996,0 hPa 0,0 mm 0,0 km/h (0 Bft) S 180 0 min 0 UV-I 0 W/m 3,2 km/h (1 Bft)
17.12.2010 23:00 -2,8 C 90 % 996,0 hPa 0,3 mm 0,0 km/h (0 Bft) S 180 0 min 0 UV-I 0 W/m 3,2 km/h (1 Bft)
17.12.2010 23:10 -2,8 C 90 % 996,1 hPa 0,0 mm 0,0 km/h (0 Bft) S 180 0 min 0 UV-I 0 W/m 6,4 km/h (2 Bft)
17.12.2010 23:20 -2,9 C 90 % 996,1 hPa 0,0 mm 1,6 km/h (1 Bft) S 180 0 min 0 UV-I 0 W/m 6,4 km/h (2 Bft)
17.12.2010 23:30 -3,0 C 90 % 996,2 hPa 0,0 mm 0,0 km/h (0 Bft) S 180 0 min 0 UV-I 0 W/m 4,8 km/h (1 Bft)
17.12.2010 23:40 -3,1 C 90 % 996,3 hPa 0,0 mm 0,0 km/h (0 Bft) S 180 0 min 0 UV-I 0 W/m 3,2 km/h (1 Bft)
17.12.2010 23:50 -3,2 C 90 % 996,3 hPa 0,0 mm 0,0 km/h (0 Bft) S 180 0 min 0 UV-I 0 W/m 3,2 km/h (1 Bft)
_ Min-Zeit 23:50 16:40 05:50 - 00:00 - - - - - 00:10
Minimum _ -3,3 C 88 % 993,1 hPa - 0,0 km/h (0 Bft) - - - - - 0,0 km/h (0 Bft)
_ Max-Zeit 00:00 00:00 23:40 00:30 10:30 - - 00:00 00:00 12:30 05:50
Maximum _ -1,4 C 91 % 996,3 hPa 0,3 mm 3,2 km/h
W-SW (1 Bft)
- - 0 min 0 UV-I 46 W/m 9,7 km/h
W (2 Bft)
Durchschnitt _ -2,4 C 90 % 994,2 hPa #2,8 mm 0,2 km/h (0 Bft) W - #0 min. 0 UV-I 15 W/m 3,3 km/h (1 Bft)